This demonstration page uses our WeatherBlox Daily Observations layout. Learn more.

Left ArrowRight Arrow

36.17497, -115.13722

Hourly Observations for June 18, 2021

Temp ( °F °C ) Dew Point ( °F °C ) Humidity (%) Winds ( mph kmh ) Pressure ( in mb ) Visibility ( mi km ) Precip ( " mm )
12:53 am 00:53 Clear 95 35 39 3.9 14 14 WNW 7 11 29.65 1004 10 16 N/A
1:53 am 01:53 Clear 101 38.3 36 2.2 10 10 NW 12 19 29.62 1003 10 16 N/A
2:53 am 02:53 Clear 98 36.7 34 1.1 11 11 NW 9 15 29.63 1003 10 16 N/A
3:53 am 03:53 Clear 96 35.6 36 2.2 12 12 WSW 5 7 29.63 1004 10 16 N/A
4:53 am 04:53 Clear 91 32.8 36 2.2 14 14 ESE 6 9 29.65 1004 10 16 N/A
5:53 am 05:53 Sunny 93 33.9 39 3.9 15 15 WSW 7 11 29.67 1005 10 16 N/A
6:33 am 06:33 Sunny 97 36.1 35 1.7 11 11 N 15 24 29.52 1000 10 16 N/A
6:53 am 06:53 Sunny 96 35.6 36 2.2 12 12 SW 3 6 29.67 1005 10 16 N/A
7:53 am 07:53 Sunny 100 37.8 39 3.9 12 12 SE 5 7 29.69 1005 10 16 N/A
8:53 am 08:53 Sunny 101 38.3 39 3.9 12 12 NNW 9 15 29.70 1006 10 16 N/A
9:53 am 09:53 Sunny 107 41.7 35 1.7 8 8 NNW 14 22 29.67 1005 10 16 N/A
10:53 am 10:53 Sunny 111 43.9 35 1.7 7 7 NW 15 24 29.66 1005 10 16 N/A
11:53 am 11:53 Sunny 112 44.4 35 1.7 7 7 N 14 22 29.65 1004 10 16 N/A
12:53 pm 12:53 Sunny 114 45.6 35 1.7 7 7 NNW 15 24 29.62 1003 10 16 N/A
1:53 pm 13:53 Sunny 114 45.6 35 1.7 7 7 NNW 10 17 29.60 1003 10 16 N/A
2:53 pm 14:53 Sunny 114 45.6 36 2.2 7 7 NNW 13 20 29.59 1002 10 16 N/A
3:53 pm 15:53 Sunny 114 45.6 36 2.2 7 7 NNW 14 22 29.57 1001 10 16 N/A
4:53 pm 16:53 Sunny 113 45 36 2.2 7 7 NNW 8 13 29.56 1001 10 16 N/A
5:53 pm 17:53 Sunny 113 45 36 2.2 7 7 NNW 13 20 29.54 1000 10 16 N/A
6:53 pm 18:53 Sunny 112 44.4 37 2.8 8 8 NNW 13 20 29.54 1000 10 16 N/A
7:53 pm 19:53 Sunny 109 42.8 37 2.8 8 8 NW 9 15 29.55 1001 10 16 N/A
8:53 pm 20:53 Clear 107 41.7 37 2.8 9 9 NNW 10 17 29.57 1001 10 16 N/A
9:53 pm 21:53 Clear 104 40 37 2.8 10 10 NNW 10 17 29.59 1002 10 16 N/A
10:53 pm 22:53 Clear 101 38.3 37 2.8 11 11 NW 13 20 29.60 1002 10 16 N/A
11:53 pm 23:53 Clear 100 37.8 37 2.8 11 11 NW 15 24 29.61 1003 10 16 N/A

Powered by AerisWeather